| time (UTC) | temp C | wind direction | speed KPH | gust KPH | rain 1hr cm | rain 24hr cm | rain mn cm | humidity % | barometer mb |
| 20260504213034 | 17 | 0 | 0.0 | 4.8 | 0.00 | 0.00 | 0.00 | 52 | 1011.6 |
| 20260504211539 | 17 | 0 | 1.6 | 11.3 | 0.00 | 0.00 | 0.00 | 52 | 1011.6 |
| 20260504210054 | 17 | 336 | 1.6 | 12.9 | 0.00 | 0.00 | 0.00 | 51 | 1011.6 |
| 20260504204541 | 18 | 292 | 1.6 | 19.3 | 0.00 | 0.00 | 0.00 | 48 | 1011.4 |
| 20260504203037 | 18 | 345 | 1.6 | 14.5 | 0.00 | 0.00 | 0.00 | 45 | 1011.4 |
| 20260504201535 | 19 | 307 | 3.2 | 12.9 | 0.00 | 0.00 | 0.00 | 44 | 1011.3 |
| 20260504200036 | 19 | 321 | 4.8 | 16.1 | 0.00 | 0.00 | 0.00 | 42 | 1011.1 |
| 20260504194550 | 19 | 257 | 1.6 | 19.3 | 0.00 | 0.00 | 0.00 | 44 | 1011.2 |
| 20260504193034 | 19 | 312 | 3.2 | 16.1 | 0.00 | 0.00 | 0.00 | 44 | 1011.5 |
| 20260504191543 | 20 | 207 | 6.4 | 19.3 | 0.00 | 0.00 | 0.00 | 43 | 1011.6 |
| 20260504190043 | 20 | 80 | 3.2 | 17.7 | 0.00 | 0.00 | 0.00 | 43 | 1011.7 |
| 20260504184539 | 19 | 36 | 3.2 | 12.9 | 0.00 | 0.00 | 0.00 | 46 | 1012.0 |
| 20260504183037 | 18 | 64 | 8.0 | 17.7 | 0.00 | 0.00 | 0.00 | 46 | 1011.8 |
| 20260504181543 | 18 | 59 | 3.2 | 22.5 | 0.00 | 0.00 | 0.00 | 51 | 1012.1 |
| 20260504180055 | 17 | 235 | 8.0 | 25.7 | 0.00 | 0.00 | 0.00 | 52 | 1012.4 |
| 20260504174535 | 17 | 114 | 8.0 | 22.5 | 0.00 | 0.00 | 0.00 | 52 | 1012.4 |
| 20260504173036 | 16 | 340 | 1.6 | 12.9 | 0.00 | 0.00 | 0.00 | 56 | 1012.8 |
| 20260504171535 | 16 | 291 | 6.4 | 17.7 | 0.00 | 0.00 | 0.00 | 55 | 1012.8 |
| 20260504081537 | 7 | 106 | 4.8 | 17.7 | 0.00 | 0.00 | 0.00 | 59 | 1014.7 |
| 20260504044536 | 8 | 165 | 1.6 | 6.4 | 0.00 | 0.00 | 0.00 | 47 | 1015.4 |
| 20260504043034 | 8 | 123 | 1.6 | 6.4 | 0.00 | 0.00 | 0.00 | 47 | 1015.3 |
| 20260504041536 | 8 | 145 | 3.2 | 6.4 | 0.00 | 0.00 | 0.00 | 47 | 1015.4 |
| 20260504040043 | 8 | 98 | 1.6 | 4.8 | 0.00 | 0.00 | 0.00 | 47 | 1015.4 |
| 20260504034547 | 8 | 95 | 1.6 | 4.8 | 0.00 | 0.00 | 0.00 | 47 | 1015.5 |
| 20260504033036 | 8 | 180 | 0.0 | 6.4 | 0.00 | 0.00 | 0.00 | 46 | 1015.6 |
| 20260504031545 | 8 | 73 | 1.6 | 4.8 | 0.00 | 0.00 | 0.00 | 46 | 1015.5 |
| 20260504030041 | 8 | 100 | 0.0 | 4.8 | 0.00 | 0.00 | 0.00 | 45 | 1015.6 |
| 20260504024542 | 8 | 33 | 0.0 | 3.2 | 0.00 | 0.00 | 0.00 | 45 | 1015.6 |
| 20260504023037 | 8 | 45 | 1.6 | 8.0 | 0.00 | 0.00 | 0.00 | 45 | 1015.7 |
| 20260504021535 | 8 | 47 | 0.0 | 6.4 | 0.00 | 0.00 | 0.00 | 45 | 1015.8 |
| 20260504020040 | 8 | 0 | 1.6 | 4.8 | 0.00 | 0.00 | 0.00 | 44 | 1015.7 |
| 20260504014537 | 8 | 0 | 1.6 | 4.8 | 0.00 | 0.00 | 0.00 | 45 | 1015.7 |
| 20260504013037 | 8 | 26 | 0.0 | 3.2 | 0.00 | 0.00 | 0.00 | 47 | 1015.6 |
| 20260504011537 | 8 | 0 | 0.0 | 1.6 | 0.00 | 0.00 | 0.00 | 45 | 1015.4 |
| 20260504010042 | 8 | 341 | 0.0 | 3.2 | 0.00 | 0.00 | 0.00 | 45 | 1015.1 |
| 20260504004537 | 8 | 0 | 0.0 | 3.2 | 0.00 | 0.00 | 0.00 | 44 | 1015.1 |
| 20260504003043 | 8 | 0 | 0.0 | 9.7 | 0.00 | 0.00 | 0.00 | 45 | 1015.0 |
| 20260504001547 | 8 | 0 | 0.0 | 4.8 | 0.00 | 0.00 | 0.00 | 45 | 1015.0 |
| 20260504000037 | 8 | 0 | 0.0 | 0.0 | 0.00 | 0.00 | 0.00 | 45 | 1015.0 |
| 20260503234535 | 9 | 0 | 0.0 | 1.6 | 0.00 | 0.00 | 0.00 | 44 | 1015.2 |
| 20260503233037 | 10 | 0 | 0.0 | 6.4 | 0.00 | 0.00 | 0.00 | 41 | 1015.2 |
| 20260503231546 | 10 | 0 | 1.6 | 6.4 | 0.00 | 0.00 | 0.00 | 40 | 1015.2 |
| 20260503230038 | 10 | 1 | 0.0 | 14.5 | 0.00 | 0.00 | 0.00 | 40 | 1015.2 |
| 20260503224536 | 10 | 319 | 3.2 | 12.9 | 0.00 | 0.00 | 0.00 | 38 | 1015.1 |
| 20260503223043 | 10 | 176 | 0.0 | 14.5 | 0.00 | 0.00 | 0.00 | 38 | 1015.2 |
| 20260503221537 | 11 | 305 | 3.2 | 9.7 | 0.00 | 0.00 | 0.00 | 37 | 1015.0 |
| 20260503220040 | 11 | 0 | 0.0 | 9.7 | 0.00 | 0.00 | 0.00 | 37 | 1015.0 |
| 20260503214542 | 11 | 217 | 3.2 | 8.0 | 0.00 | 0.00 | 0.00 | 37 | 1015.0 |